Home > Weather > Tönisvorst > Past weeks

Flag for Germany Weather for the Past 2 Weeks in Tönisvorst, North Rhine-Westphalia, Germany

Now
46 °F

Scattered clouds.


Feels Like: 42 °F
Forecast: 38 / 65 °F
Wind: 9 mph from North

Location: Monchengladbach Airport

Current Time: May 1, 2016 at 11:07:42 AM

Latest Report: May 1, 2016 at 10:20 AM


Visibility: N/A

Pressure: 30.30 "Hg

Humidity: 76%

Dew Point: 39 °F

Location of TönisvorstLocation

Historic Weather in Tönisvorst — Graph

°F

Tönisvorst Temperature Yesterday

Maximum temperature yesterday: 50 °F (at 1:50 PM)
Minimum temperature yesterday: 43 °F (at 7:50 AM)
Average temperature yesterday: 47 °F

High & Low Weather Summary for the Past Weeks

 TemperatureHumidityPressure
High66 °F (Apr 21, 4:20 PM)100% (Apr 30, 7:50 AM)30.48 "Hg (Apr 30, 7:50 AM)
Low37 °F (Apr 18, 7:50 AM)28% (Apr 21, 5:20 PM)29.50 "Hg (Apr 26, 12:20 PM)
Average49 °F65%29.98 "Hg
* Reported Apr 16 8:20 AM — May 1 8:50 AM, Tönisvorst, Weather by CustomWeather, © 2016

Note: Actual official high and low records may vary slightly from our data, if they occured in-between our weather recording intervals... More about our weather records

Advertising

Tönisvorst Weather History for the Previous 24 Hours

Scroll right to see more
 ConditionsComfort  
Time TempWeatherWind HumidityBarometerVisibility
8:50 AM
Sun, May 1
45 °FPartly sunny.8 mph81%30.30 "HgN/A
8:20 AM43 °FScattered clouds.9 mph87%30.30 "HgN/A
7:50 AM43 °FSunny.9 mph87%30.27 "Hg10 mi
8:20 PM
Sat, Apr 30
46 °FClear.5 mph82%30.15 "Hg10 mi
7:50 PM48 °FClear.5 mph76%30.12 "Hg10 mi
7:20 PM48 °FClear.2 mph76%30.12 "Hg10 mi
6:50 PM48 °FClear.2 mph76%30.12 "Hg10 mi
6:20 PM48 °FClear.2 mph76%30.12 "Hg10 mi
5:50 PM48 °FPassing clouds.5 mph76%30.12 "HgN/A
5:20 PM48 °FPassing clouds.5 mph76%30.12 "HgN/A
4:50 PM48 °FPassing clouds.2 mph71%30.12 "HgN/A
4:20 PM48 °FPassing clouds.2 mph71%30.09 "HgN/A
3:50 PM48 °FPassing clouds.5 mph76%30.09 "HgN/A
3:20 PM48 °FLight rain. Passing clouds.5 mph82%30.09 "HgN/A
2:50 PM48 °FPassing clouds.2 mph76%30.09 "HgN/A
2:20 PM50 °FPartly cloudy.5 mph71%30.09 "HgN/A
1:50 PM50 °FPartly cloudy.6 mph71%30.09 "HgN/A
1:20 PM48 °FPassing clouds.3 mph71%30.09 "HgN/A
12:50 PM48 °FLight rain. Partly sunny.5 mph76%30.09 "HgN/A
12:20 PM48 °FLight rain. Partly sunny.3 mph76%30.09 "HgN/A
11:50 AM48 °FPartly sunny.2 mph71%30.09 "HgN/A
11:20 AM48 °FPartly sunny.1 mph76%30.07 "HgN/A
Weather by CustomWeather, © 2016

See weather overviewHow to use our weather pages